RH
74 79 82 98 99 98 92 95 97 99 95 96 92 82 63 60 64 67 68 64 71 73 80 81 70 69 62 62 70 81 83 89 86 77 84 82 85 83 84 92 76 63 78 65
64 75 78 90 95 98 98 98 98 98 98 88 88 73 69 75 77 74 68 71 77 81 84 75 70 73 68 73 78 85 90 95 95 95 95 94 91 84 70 64 76 64 60 47
54 71 80 89 98 96 95 97 98 98 97 93 84 75 82 83 77 71 72 80 84 88 82 67 68 74 71 74 83 89 95 98 96 89 95 94 93 80 63 66 73 63 61 62
54 70 81 90 97 93 95 94 90 84 87 88 77 86 85 83 85 79 81 86 90 90 79 70 71 72 81 85 89 95 98 97 98 94 93 98 86 76 64 61 51 63 60 75
51 66 80 87 97 97 97 98 90 89 88 88 84 86 82 79 84 90 85 90 89 91 81 63 59 68 76 83 93 96 97 97 98 98 97 96 83 77 74 66 62 68 78 74
50 64 82 92 97 98 98 98 97 89 86 89 89 83 81 83 84 88 82 88 91 89 80 65 60 68 77 87 95 98 98 98 98 95 96 88 86 74 76 71 73 77 85 71
51 67 82 93 98 98 99 99 98 98 96 87 85 88 89 83 88 84 76 81 89 91 82 66 61 72 70 83 89 94 98 98 98 98 99 97 86 81 80 81 85 84 83 82
49 67 82 96 97 97 98 98 98 93 89 90 91 91 87 91 90 86 75 70 71 92 89 74 71 79 72 75 76 87 92 95 98 99 94 83 87 94 95 94 93 87 89 83
45 67 79 90 95 93 92 96 98 98 97 95 94 96 85 89 93 91 79 71 92 96 93 84 80 75 76 74 69 77 86 88 88 88 90 76 70 82 84 88 87 80 78 76
37 61 84 92 92 92 94 97 95 95 91 90 87 88 82 84 90 88 77 91 96 98 95 89 78 76 72 75 75 74 79 83 83 84 85 76 67 67 72 87 69 67 70 68
31 48 73 85 90 94 94 97 96 92 89 91 94 86 84 89 91 88 89 97 97 98 97 90 85 79 80 73 71 69 70 70 77 79 83 80 68 65 68 63 59 59 64 66
30 41 66 75 87 94 96 96 99 99 95 91 90 86 86 88 90 79 94 97 98 96 94 87 86 79 83 76 79 73 74 66 71 70 72 67 69 66 63 61 59 61 62 62
31 40 57 75 85 95 95 97 97 94 93 88 87 82 88 90 90 86 94 97 96 98 94 93 90 78 79 80 82 79 75 74 72 70 67 71 70 68 63 62 62 63 65 66
34 38 48 69 82 89 92 97 96 87 92 85 79 79 86 86 88 84 90 97 98 98 99 95 93 80 79 82 80 81 81 79 77 75 72 71 69 68 64 66 67 67 67 66
37 31 43 63 77 84 90 91 89 83 87 84 85 83 81 85 90 88 94 98 98 98 99 98 91 84 84 81 78 76 75 78 78 79 72 69 67 67 64 64 66 69 69 73
29 25 39 60 73 85 89 93 90 86 83 88 88 84 82 78 84 87 96 98 98 99 98 96 92 89 88 86 79 70 66 69 73 73 72 72 69 67 65 64 67 67 69 74
24 30 38 54 68 84 86 84 85 88 86 86 84 79 70 77 88 89 97 98 99 99 98 98 94 96 94 86 81 74 68 68 67 69 68 70 69 68 66 65 69 70 72 72
20 29 36 49 64 78 85 88 95 90 95 88 88 80 71 74 88 86 93 95 97 97 98 98 97 95 92 88 77 72 73 72 72 69 73 69 72 71 68 67 72 74 76 69
26 42 51 57 70 86 95 94 98 97 94 90 83 81 74 70 83 84 90 96 98 98 97 98 97 94 90 78 73 72 69 67 71 71 73 68 71 73 72 68 70 68 63 62
45 60 60 70 81 94 99 98 97 99 95 86 82 82 79 74 80 86 88 93 99 98 97 97 96 88 76 71 65 63 60 58 68 76 77 75 67 64 66 67 65 63 63 64
58 80 75 81 87 98 99 99 96 93 89 80 77 80 81 77 77 87 85 94 90 92 91 95 90 84 72 64 58 56 55 57 57 57 57 59 60 62 64 64 64 62 59 60
60 77 76 82 93 99 98 97 94 88 79 73 74 77 73 73 72 79 86 90 89 80 82 85 81 71 64 58 56 54 54 55 55 55 55 56 58 60 62 62 60 61 60 55
62 78 87 90 95 98 97 87 82 78 71 72 75 78 77 73 71 76 80 82 83 80 81 75 67 63 64 61 56 56 58 58 57 57 58 58 60 62 64 64 63 61 57 53
70 88 93 95 96 98 91 80 80 74 73 78 76 83 83 80 75 75 78 78 79 77 72 61 53 51 55 58 62 61 60 61 62 61 64 64 63 65 67 67 65 62 60 56
77 95 97 98 98 91 86 83 84 85 85 82 82 83 82 84 86 77 78 81 75 68 58 52 46 44 48 53 56 59 62 62 64 66 68 69 69 69 70 68 68 65 57 47
75 95 97 97 94 91 89 88 87 86 86 83 84 87 88 89 84 83 75 72 66 58 56 48 45 45 46 48 52 55 58 60 62 63 67 69 71 72 71 70 68 60 49 45
68 91 97 97 97 98 93 92 89 91 92 88 84 87 82 84 85 77 70 64 55 57 55 54 51 50 48 46 47 51 55 58 61 63 66 69 69 69 68 67 61 53 47 48